CST,Max TemperatureF,Mean TemperatureF,Min TemperatureF,Max Dew PointF,MeanDew PointF,Min DewpointF,Max Humidity, Mean Humidity, Min Humidity, Max Sea Level PressureIn, Mean Sea Level PressureIn, Min Sea Level PressureIn, Max VisibilityMiles, Mean VisibilityMiles, Min VisibilityMiles, Max Wind SpeedMPH, Mean Wind SpeedMPH, Max Gust SpeedMPH,PrecipitationIn, CloudCover, Events, WindDirDegrees
2011-11-1,75,62,50,50,45,37,77,58,41,29.92,29.88,29.82,10,10,7,18,11,23,0.00,2,,200
2011-11-2,55,46,37,45,40,34,100,90,55,30.18,30.07,29.91,10,8,2,23,12,33,0.39,8,Rain-Snow-Thunderstorm,359
2011-11-3,51,41,30,33,30,27,86,69,44,30.30,30.26,30.16,10,10,10,17,13,25,0.01,1,,333
2011-11-4,57,40,23,40,31,22,96,76,40,30.30,30.19,30.06,10,10,7,13,4,21,0.00,0,,144
2011-11-5,61,50,39,44,42,39,100,74,49,30.03,29.86,29.70,10,9,6,24,13,33,0.00,0,,157
2011-11-6,60,48,36,45,36,30,79,58,35,30.10,29.89,29.68,10,10,10,21,13,33,0.00,0,,236
2011-11-7,59,42,26,45,35,24,100,77,29,30.20,30.10,29.99,10,9,4,26,7,34,0.90,4,Rain,37
2011-11-8,45,39,33,43,40,33,100,97,90,30.04,29.99,29.94,10,5,2,23,11,36,0.92,8,Rain-Snow,21
2011-11-9,51,42,33,37,30,23,100,75,36,30.31,30.19,30.02,10,9,2,21,13,31,0.39,2,Rain-Snow,312
2011-11-10,48,38,28,25,22,19,79,58,33,30.34,30.23,30.06,10,10,10,13,9,21,0.00,0,,276
2011-11-11,62,45,28,37,32,24,85,64,36,30.02,29.82,29.75,10,10,10,10,7,16,0.00,0,,207
2011-11-12,62,48,34,40,36,34,100,68,39,29.74,29.55,29.39,10,10,10,18,6,25,0.00,0,,180
2011-11-13,59,49,39,42,35,29,79,56,36,29.62,29.48,29.27,10,10,10,21,12,30,0.00,0,,248
2011-11-14,59,48,37,39,34,31,93,61,35,29.73,29.66,29.54,10,10,10,17,5,23,0.00,0,,240
2011-11-15,57,46,35,35,29,21,82,55,33,30.07,29.82,29.67,10,10,10,16,7,22,0.00,0,,321
2011-11-16,42,34,26,24,19,14,92,60,32,30.37,30.25,30.09,10,10,10,10,6,,0.00,3,,307
2011-11-17,48,34,19,30,22,16,96,64,27,30.37,30.22,29.98,10,10,10,21,9,26,0.00,0,,206
2011-11-18,61,50,39,40,32,25,76,56,42,29.96,29.78,29.68,10,10,10,23,15,37,0.00,0,,185
2011-11-19,62,46,28,50,37,24,86,77,56,30.19,29.74,29.51,10,10,10,23,12,36,0.00,7,,246
2011-11-20,36,30,24,26,23,19,96,79,64,30.34,30.27,30.20,10,10,10,13,9,18,0.00,6,,20
2011-11-21,41,34,28,36,31,26,93,81,70,30.29,30.19,30.09,10,10,7,6,1,,0.00,8,,90
2011-11-22,42,40,35,41,39,35,100,96,87,30.19,30.07,30.03,10,5,2,9,5,,0.10,8,Rain,318
2011-11-23,55,45,35,41,38,36,100,91,57,30.22,30.18,30.13,10,5,0,12,7,,0.00,4,Fog,165
2011-11-24,70,53,36,45,41,36,100,71,33,30.12,30.00,29.90,10,9,5,23,9,32,0.01,0,,183
2011-11-25,59,52,46,54,48,43,100,83,72,29.88,29.76,29.69,10,9,5,17,13,29,0.10,5,Rain,191
2011-11-26,54,46,37,52,38,25,100,78,60,30.22,29.98,29.72,10,10,9,22,13,39,0.09,7,Rain,327
2011-11-27,39,29,19,26,22,17,92,66,53,30.31,30.25,30.20,10,10,10,18,11,30,0.00,4,,335
2011-11-28,45,30,15,29,22,14,96,79,48,30.23,30.15,30.08,10,10,10,7,2,,0.00,0,,300
2011-11-29,46,35,23,31,22,14,82,62,28,30.33,30.26,30.13,10,10,10,15,10,22,0.00,0,,335
2011-11-30,54,36,18,23,19,14,88,59,26,30.23,30.07,29.96,10,10,10,16,6,25,0.00,0,,162